RH
38 40 40 47 44 39 32 31 30 31 31 36 43 53 56 52 57 49 47 45 38 30 29 29 28 30 31 38 46 53 55 54 61 59 57 57 56 51 48 38 32 28 27
46 48 58 55 48 44 38 32 33 33 36 36 37 42 47 49 55 49 38 40 38 30 27 27 27 26 30 32 47 51 58 60 63 60 59 59 60 56 49 41 35 30 30
74 72 82 76 67 51 50 47 42 52 51 46 52 40 42 43 38 46 38 36 37 35 28 26 28 29 30 29 48 54 66 64 61 66 63 60 56 51 48 43 32 31 31
81 86 91 91 94 80 64 56 54 60 60 58 58 49 41 40 36 34 34 32 35 34 30 31 32 30 29 29 46 53 60 64 62 61 57 56 51 48 47 36 30 32 34
68 87 96 84 84 82 90 87 87 77 71 78 72 58 42 39 39 35 32 32 33 33 33 34 34 34 31 27 33 44 50 64 68 62 59 57 51 41 36 35 35 36 39
61 75 91 92 89 76 78 85 79 71 70 66 81 69 50 43 39 39 38 36 36 34 36 36 37 40 35 28 28 33 45 55 61 59 51 46 40 36 35 35 37 40 40
53 62 82 92 91 79 94 92 80 74 70 64 75 69 50 43 43 40 41 36 37 37 38 40 42 41 40 33 26 26 32 37 39 43 40 38 35 36 37 38 40 41 39
53 61 68 79 88 94 99 99 95 81 68 68 72 70 62 54 47 46 39 40 40 40 40 43 43 38 40 36 31 27 26 28 29 30 33 34 36 36 38 41 44 44 48
64 62 55 73 79 92 100 96 83 71 70 72 74 70 65 60 52 54 44 44 43 43 44 49 51 45 40 44 40 33 29 29 31 31 33 34 36 39 43 50 58 64 68
84 72 88 67 66 74 80 99 90 67 75 72 71 70 75 64 58 61 53 51 48 48 48 52 56 51 49 51 46 40 37 35 33 32 35 39 46 50 57 64 70 72 70
100 100 100 100 81 72 82 98 98 76 75 77 75 72 71 74 74 70 66 59 53 51 49 52 61 72 58 52 60 42 33 35 39 41 46 52 57 63 68 72 74 68 69
100 97 89 99 100 89 95 98 97 97 97 87 77 71 74 77 75 77 78 69 65 62 63 62 74 84 79 64 67 74 65 57 56 56 56 62 72 78 78 81 83 82 86
87 81 100 100 100 100 100 100 100 100 100 100 93 85 78 87 88 81 81 83 70 69 74 72 74 85 90 79 67 71 68 68 74 74 84 87 87 86 86 90 98 100 94
81 87 100 100 100 98 98 96 100 98 100 100 100 100 87 86 87 98 91 88 81 76 79 80 75 80 78 73 66 65 68 76 81 91 93 97 100 99 100 98 100 100 100
93 99 83 82 99 87 98 100 100 89 83 100 100 100 100 98 92 90 99 99 93 90 89 89 82 80 82 84 81 76 75 81 99 100 100 100 100 100 100 100 100 100 100
100 84 69 78 96 100 100 100 100 81 100 100 100 100 100 100 100 100 100 100 100 100 100 99 94 87 88 90 92 98 99 100 100 100 100 97 100 100 100 100 100 100 99
100 100 92 100 100 100 100 100 74 57 83 100 100 100 100 100 100 100 100 100 100 100 100 100 100 100 97 99 100 100 100 100 100 100 95 100 99 95 90 86 86 100 95
100 100 100 100 100 100 100 93 84 57 64 100 100 100 95 94 80 84 85 96 100 100 100 100 100 100 100 100 100 100 100 100 100 100 93 95 90 86 83 95 77 75 78
100 100 100 100 100 100 100 100 100 68 66 84 89 100 100 92 83 93 95 100 98 97 100 100 100 100 100 100 100 100 100 100 100 99 99 96 96 91 71 80 95 90 92
100 100 100 100 100 100 100 100 99 93 92 73 76 95 96 66 78 80 99 97 100 92 82 98 100 100 100 100 100 100 100 100 99 100 96 87 99 96 95 98 95 98 94
100 100 100 100 100 100 100 100 100 100 100 79 77 72 64 43 84 100 100 100 100 100 100 100 100 100 100 100 100 100 100 100 92 88 97 99 73 82 97 84 81 92 78
100 100 100 100 100 100 100 100 100 100 100 89 100 100 88 65 80 77 92 93 99 100 100 100 100 100 100 97 83 87 100 100 100 100 99 96 95 74 71 79 75 78 85
100 100 100 100 100 100 100 78 96 100 100 100 100 69 94 72 76 100 99 100 100 100 100 100 100 100 98 91 69 70 73 98 99 93 100 100 81 83 90 77 91 91 100
100 97 92 100 98 100 100 100 86 100 100 100 100 100 100 100 100 100 100 100 100 100 100 90 59 58 58 66 76 84 80 98 100 100 100 100 100 86 100 100 100 100 100
100 100 100 86 98 91 100 100 100 100 90 100 100 100 100 100 100 100 100 100 100 100 100 100 100 88 65 53 55 59 81 94 98 100 91 100 100 100 100 100 100 100 100
100 100 100 100 100 95 100 100 100 100 100 100 100 100 100 100 100 100 100 100 99 95 100 100 98 94 84 55 63 77 85 74 65 73 91 100 100 100 100 100 100 100 100
Wind_Speed
44 43 42 39 37 35 34 32 33 32 31 30 29 31 31 29 25 24 24 25 26 28 27 27 26 25 26 27 27 28 30 30 30 31 32 33 33 34 33 34 35 36 37
47 44 41 41 39 36 35 34 31 32 31 31 31 31 32 31 30 28 28 27 29 29 28 27 26 25 27 28 29 28 30 30 29 31 33 33 34 34 35 36 37 38 39
49 47 45 43 42 40 37 34 33 31 32 31 33 33 32 33 33 33 33 32 30 30 30 28 26 25 27 29 28 28 29 29 29 30 33 34 34 34 36 37 38 39 40
53 51 48 47 43 43 41 38 37 35 33 35 33 34 34 33 34 35 34 33 32 31 29 28 26 27 28 29 29 28 28 29 29 30 33 35 36 36 37 38 40 41 41
53 52 50 51 48 43 43 43 41 40 37 38 36 34 34 33 33 34 33 33 32 31 28 26 26 28 29 29 29 28 28 28 29 31 34 36 37 37 37 38 39 41 43
55 53 52 51 49 44 43 42 41 39 39 37 38 37 35 33 34 33 32 33 31 29 28 26 29 29 29 29 29 28 28 28 30 32 35 36 37 38 39 40 41 43 45
54 54 54 51 47 46 44 42 41 40 39 39 36 35 35 35 34 35 33 32 30 28 27 28 30 29 29 29 29 29 29 30 32 33 35 36 38 39 40 42 44 46 48
53 52 52 51 51 48 48 45 43 40 39 38 37 37 35 36 36 35 32 30 30 29 29 31 30 28 28 29 29 30 30 31 33 34 35 36 39 41 42 44 46 48 49
55 56 53 54 53 51 48 47 44 42 42 40 40 38 39 39 37 33 31 30 31 30 30 31 31 30 28 29 30 31 31 32 33 35 36 39 41 43 44 45 48 49 50
56 60 55 57 56 54 51 49 49 46 44 44 41 39 38 38 37 33 31 31 32 32 32 31 31 32 32 31 31 31 33 35 36 37 38 40 41 43 45 47 49 51 52
56 61 61 55 53 55 54 51 51 51 49 47 43 39 39 39 37 34 33 33 33 34 34 33 32 33 33 32 33 33 33 34 36 37 38 40 42 44 46 49 51 54 55
48 57 59 55 60 57 54 52 52 55 50 47 45 42 40 41 41 38 36 35 36 36 36 36 36 37 37 37 37 38 38 39 40 42 42 43 45 47 49 53 55 58 59
60 54 45 42 54 57 55 55 52 53 55 52 49 46 44 41 42 42 41 38 38 38 39 40 41 40 41 40 41 42 43 44 46 47 47 49 51 53 54 57 60 61 64
61 49 45 36 38 45 49 52 51 53 54 52 49 50 49 45 45 44 45 44 43 42 42 43 43 44 44 44 44 45 47 48 50 50 52 53 56 59 62 61 62 63 67
64 58 58 52 45 47 44 48 48 52 51 54 56 56 53 51 49 50 49 48 47 48 47 47 48 47 47 48 49 50 52 53 54 53 54 57 60 62 63 62 63 65 68
69 70 68 60 54 51 45 45 50 51 50 50 53 54 54 53 51 52 51 50 49 50 51 52 52 52 53 53 53 55 56 56 57 57 57 59 60 60 60 62 63 67 70
83 75 71 65 66 54 49 49 53 51 47 46 49 53 55 54 52 53 56 56 54 53 52 53 55 56 56 56 57 57 57 58 59 59 61 60 61 62 65 64 68 70 74
87 78 74 70 71 60 57 54 57 50 55 54 53 56 57 58 54 54 58 63 62 60 61 61 60 58 58 60 60 59 59 61 64 63 65 64 65 66 66 65 71 75 78
88 85 82 78 75 72 64 64 65 58 63 60 54 47 51 59 59 58 63 65 65 65 64 64 64 62 63 63 64 65 65 66 66 68 69 68 68 68 70 72 73 79 81
88 90 87 83 82 78 72 69 74 78 81 67 62 61 65 68 68 66 67 67 71 72 72 70 68 67 66 68 68 70 69 70 70 71 72 73 70 71 73 73 78 80 83
83 79 90 81 82 87 85 83 84 84 84 85 87 82 80 79 77 78 74 74 70 71 71 72 73 71 70 67 68 67 66 73 75 74 72 70 71 75 73 77 81 82 85
79 83 79 83 86 85 82 87 85 85 84 72 79 86 82 78 71 78 82 77 74 76 71 68 69 68 72 77 77 72 70 73 72 71 73 75 76 77 77 83 86 85 85
91 87 89 87 87 79 75 83 85 81 77 76 80 79 86 87 86 88 76 75 69 65 71 74 74 73 75 72 70 72 73 74 76 76 78 81 83 84 87 89 87 86 83
95 93 98 89 92 94 91 84 81 85 88 83 85 85 80 81 85 85 87 89 87 82 81 84 88 91 91 90 89 90 83 75 76 76 84 87 90 91 86 84 84 89 95
103 103 98 101 91 90 94 96 94 91 94 93 94 92 82 81 74 83 89 91 88 90 85 88 95 101 97 94 95 91 90 87 87 85 87 93 91 90 88 88 97 106 109
109 109 111 106 105 103 95 98 100 98 91 86 93 93 90 89 91 89 89 89 92 93 95 98 97 96 96 96 95 94 90 89 90 91 92 89 91 94 95 99 110 110 109
Wind_Direction
242 244 246 247 248 253 256 258 261 265 266 268 268 272 280 280 282 286 289 293 295 298 296 297 296 296 299 300 302 300 302 306 306 310 312 316 318 321 320 319 322 323 323
240 242 246 249 249 251 254 257 261 265 270 270 273 273 275 279 281 287 292 294 298 302 302 299 297 298 299 298 298 300 301 306 306 308 312 315 318 320 320 320 322 323 324
238 240 243 245 249 250 253 255 259 264 270 273 276 275 273 277 281 284 291 293 297 300 302 299 298 299 301 301 297 299 300 305 308 309 313 314 316 318 320 320 321 323 324
237 240 242 244 247 249 251 254 256 261 265 268 276 276 276 277 282 284 288 289 293 296 297 296 295 301 302 300 298 299 301 304 307 309 311 313 314 316 317 320 321 322 323
237 240 243 247 248 251 251 255 257 260 263 268 271 278 276 280 285 286 288 289 290 291 292 290 295 300 300 299 300 301 303 304 306 310 312 312 314 316 317 319 320 320 322
237 239 241 244 244 249 252 255 257 261 262 269 269 273 277 281 284 286 288 289 287 287 290 289 293 297 298 299 300 302 301 303 303 306 308 311 313 315 317 318 319 319 320
236 237 240 243 245 250 251 256 259 262 266 268 269 270 274 277 285 283 283 285 282 283 285 289 292 295 295 296 297 299 298 301 303 305 307 310 312 313 314 315 316 317 318
236 238 239 240 246 251 253 253 257 260 263 267 267 268 272 277 283 280 276 278 278 279 282 286 290 294 294 295 297 298 299 300 303 304 306 307 309 311 314 316 316 315 317
238 239 242 241 242 246 250 253 253 256 260 263 266 268 271 276 281 276 274 275 276 276 279 286 290 294 293 293 294 295 297 298 299 301 304 306 307 309 313 314 313 314 315
243 238 241 240 241 245 247 252 253 255 261 262 264 267 270 274 277 275 275 274 274 276 279 285 290 295 296 297 294 294 295 296 299 300 302 304 307 309 311 312 312 313 314
239 238 237 241 243 247 247 251 253 256 262 261 261 263 270 273 273 273 274 272 272 275 281 284 289 294 297 296 301 301 301 301 301 300 301 303 306 307 308 309 311 314 314
236 236 237 241 240 246 249 253 255 257 259 260 262 265 268 270 271 272 273 272 271 275 280 285 288 292 295 295 297 300 304 305 306 306 304 304 305 306 306 307 307 310 313
222 224 233 237 239 244 249 255 263 251 256 257 259 262 266 267 271 271 272 272 270 273 278 280 283 288 290 292 294 296 298 300 302 303 304 303 303 303 303 304 306 308 308
221 222 223 230 237 245 254 256 253 259 256 253 255 261 265 265 268 270 273 272 272 271 276 279 281 284 287 290 290 291 293 296 298 298 299 301 301 301 303 303 305 306 308
222 221 229 237 255 252 249 252 253 251 256 255 257 260 261 264 266 270 272 271 271 272 276 281 281 283 285 287 289 291 293 293 294 296 297 300 301 302 304 306 304 306 305
222 228 237 243 252 249 248 253 259 256 256 253 255 254 256 262 265 268 271 272 276 277 277 280 282 282 283 286 288 290 291 294 295 298 300 301 301 302 304 303 301 304 306
222 231 232 238 241 247 238 239 252 249 250 248 250 253 257 258 264 268 271 271 275 277 281 282 282 283 284 286 287 290 291 294 294 293 295 295 297 298 298 299 303 302 305
224 227 231 235 239 238 238 238 244 251 253 247 245 251 255 260 265 270 272 274 276 278 279 280 280 281 284 285 286 287 288 289 291 293 294 294 295 295 298 299 300 303 303
226 227 230 234 238 239 243 244 248 250 248 242 243 248 262 271 270 269 275 276 276 276 277 278 278 280 282 283 284 285 286 287 287 290 290 291 293 294 297 299 302 304 304
225 226 231 235 235 236 239 248 252 254 255 251 251 263 267 274 272 273 278 277 274 273 276 275 275 281 280 281 282 282 283 284 285 288 289 290 289 295 298 301 304 302 303
221 224 227 230 235 238 237 247 249 252 257 259 256 261 267 270 267 273 276 276 275 274 274 275 275 278 277 279 282 283 282 282 285 285 286 288 295 297 297 299 298 300 302
220 221 223 226 230 233 241 241 248 253 256 260 260 262 260 263 268 271 277 273 273 273 273 273 271 272 279 280 283 282 282 282 282 284 286 289 289 292 295 300 299 301 303
220 220 217 223 226 230 240 245 245 251 255 255 257 264 267 266 271 273 274 277 277 273 274 272 273 276 277 277 278 283 282 280 282 288 289 290 293 295 297 301 302 303 304
225 230 225 224 225 227 230 238 241 245 248 249 255 261 263 265 266 268 268 270 270 268 272 270 271 275 277 279 277 281 281 278 283 287 291 292 292 296 300 300 296 295 298
225 226 225 228 228 226 232 232 241 244 247 248 250 253 258 262 261 263 262 263 266 270 268 272 276 277 276 279 281 289 282 278 280 283 286 293 291 290 291 291 294 297 298
226 232 233 235 235 234 232 233 241 244 248 249 251 253 255 258 260 261 262 266 268 268 267 270 273 276 278 281 279 283 282 281 284 285 285 283 285 287 289 289 294 295 295